Total_Precipitation_Accumulation
0.10 0.11 0.17 0.22 0.32 0.43 0.48 0.56 0.61 0.71 0.83 0.91 1.03 0.98 0.93 0.94 0.97 0.96 0.94 0.92 0.97 0.94 0.86 0.80 0.80 0.81 0.77 0.70 0.66 0.64 0.60 0.51 0.43 0.44 0.44 0.41 0.34 0.27 0.22 0.18 0.16 0.14 0.12
0.10 0.11 0.18 0.23 0.29 0.43 0.48 0.55 0.65 0.73 0.79 0.86 0.90 0.94 0.92 0.93 0.96 0.95 0.95 0.92 0.90 0.90 0.91 0.84 0.77 0.72 0.72 0.72 0.67 0.65 0.63 0.57 0.48 0.45 0.48 0.45 0.40 0.33 0.23 0.18 0.15 0.13 0.12
0.13 0.13 0.21 0.27 0.30 0.41 0.49 0.55 0.65 0.73 0.78 0.92 1.00 1.05 1.16 1.13 1.11 1.09 1.01 0.94 0.89 0.83 0.82 0.82 0.78 0.73 0.66 0.66 0.64 0.60 0.58 0.56 0.46 0.38 0.48 0.56 0.43 0.29 0.22 0.18 0.14 0.12 0.11
0.14 0.15 0.19 0.27 0.30 0.37 0.49 0.58 0.68 0.73 0.76 0.95 1.10 1.05 1.11 1.08 1.00 0.96 0.97 0.95 0.90 0.84 0.78 0.75 0.74 0.74 0.69 0.60 0.57 0.57 0.57 0.58 0.54 0.41 0.34 0.38 0.40 0.42 0.29 0.18 0.17 0.15 0.13
0.13 0.13 0.14 0.18 0.25 0.32 0.45 0.58 0.71 0.80 0.81 0.88 1.07 1.09 1.00 0.95 0.94 0.99 0.98 0.98 0.96 0.90 0.82 0.76 0.72 0.69 0.68 0.62 0.55 0.55 0.56 0.59 0.59 0.52 0.40 0.33 0.27 0.28 0.38 0.25 0.16 0.19 0.18
0.12 0.12 0.11 0.12 0.23 0.32 0.42 0.53 0.66 0.78 0.84 0.84 0.94 1.09 1.02 0.94 0.92 0.99 1.05 1.03 1.01 0.97 0.89 0.79 0.74 0.69 0.65 0.63 0.58 0.53 0.54 0.54 0.54 0.51 0.46 0.43 0.40 0.31 0.35 0.33 0.19 0.17 0.16
0.13 0.14 0.12 0.13 0.20 0.30 0.38 0.47 0.59 0.67 0.75 0.79 0.84 0.91 1.01 0.97 0.89 0.86 0.92 1.00 1.03 0.96 0.89 0.85 0.77 0.71 0.66 0.64 0.62 0.60 0.55 0.53 0.54 0.52 0.47 0.43 0.38 0.35 0.39 0.44 0.34 0.25 0.20
0.09 0.11 0.13 0.15 0.18 0.23 0.29 0.39 0.48 0.61 0.73 0.79 0.79 0.83 0.92 1.03 0.94 0.87 0.84 0.88 0.92 0.87 0.79 0.80 0.78 0.71 0.66 0.66 0.67 0.66 0.60 0.56 0.56 0.52 0.49 0.48 0.41 0.41 0.47 0.54 0.58 0.52 0.30
0.07 0.09 0.12 0.14 0.16 0.21 0.25 0.34 0.42 0.53 0.67 0.79 0.82 0.81 0.84 0.93 0.96 0.88 0.84 0.84 0.84 0.83 0.82 0.80 0.80 0.75 0.73 0.72 0.73 0.71 0.65 0.60 0.59 0.58 0.56 0.56 0.50 0.47 0.47 0.50 0.60 0.80 0.66
0.06 0.08 0.10 0.13 0.15 0.19 0.22 0.29 0.38 0.45 0.56 0.71 0.86 0.86 0.82 0.81 0.88 0.90 0.88 0.83 0.82 0.82 0.83 0.86 0.86 0.81 0.76 0.78 0.80 0.76 0.68 0.66 0.64 0.64 0.64 0.60 0.56 0.56 0.56 0.57 0.57 0.64 0.74
0.07 0.08 0.10 0.13 0.16 0.19 0.24 0.31 0.37 0.43 0.48 0.57 0.74 0.85 0.84 0.85 0.89 0.93 0.91 0.87 0.83 0.81 0.80 0.81 0.87 0.90 0.83 0.76 0.82 0.80 0.75 0.73 0.69 0.66 0.66 0.63 0.61 0.67 0.68 0.70 0.67 0.61 0.64
0.05 0.06 0.08 0.13 0.17 0.21 0.25 0.31 0.39 0.42 0.44 0.50 0.61 0.73 0.82 0.85 0.90 0.90 0.95 0.99 0.95 0.84 0.77 0.76 0.82 0.89 0.87 0.80 0.79 0.79 0.75 0.75 0.73 0.70 0.71 0.70 0.67 0.70 0.73 0.79 0.78 0.68 0.61
0.05 0.05 0.08 0.12 0.16 0.19 0.23 0.31 0.39 0.40 0.40 0.49 0.59 0.69 0.79 0.81 0.83 0.81 0.87 1.03 1.12 1.04 0.88 0.80 0.82 0.91 0.95 0.89 0.80 0.80 0.78 0.74 0.70 0.69 0.74 0.76 0.76 0.71 0.71 0.80 0.85 0.77 0.69
0.06 0.07 0.09 0.11 0.14 0.16 0.20 0.26 0.36 0.41 0.42 0.46 0.56 0.64 0.73 0.74 0.74 0.75 0.76 0.89 1.05 1.12 1.03 0.90 0.84 0.91 1.02 1.02 1.01 1.00 0.91 0.81 0.70 0.63 0.64 0.74 0.86 0.87 0.87 0.90 0.88 0.89 0.90
0.08 0.08 0.10 0.12 0.15 0.17 0.20 0.24 0.31 0.39 0.44 0.46 0.53 0.56 0.63 0.72 0.72 0.70 0.73 0.82 0.94 1.00 1.01 0.98 0.91 0.91 1.10 1.31 1.48 1.37 1.06 0.87 0.75 0.62 0.58 0.68 0.90 1.07 1.23 1.26 1.14 1.14 1.22
0.08 0.09 0.10 0.13 0.18 0.22 0.25 0.28 0.31 0.36 0.44 0.45 0.50 0.53 0.60 0.69 0.72 0.67 0.70 0.80 0.91 0.95 0.95 0.94 0.92 0.90 1.06 1.40 1.61 1.30 0.95 0.82 0.76 0.69 0.60 0.66 0.88 1.00 1.10 1.22 1.20 1.23 1.39
0.10 0.09 0.11 0.15 0.19 0.25 0.25 0.30 0.33 0.37 0.43 0.45 0.46 0.52 0.59 0.62 0.70 0.69 0.71 0.80 0.89 0.91 0.90 0.87 0.85 0.82 0.88 1.20 1.42 1.18 0.87 0.76 0.72 0.69 0.64 0.65 0.75 0.86 0.89 0.94 0.95 0.99 1.14
0.12 0.11 0.12 0.16 0.18 0.23 0.22 0.26 0.31 0.39 0.46 0.47 0.43 0.49 0.57 0.58 0.69 0.73 0.73 0.82 0.89 0.86 0.85 0.84 0.79 0.75 0.79 1.08 1.34 1.17 0.90 0.79 0.73 0.71 0.65 0.59 0.64 0.74 0.88 0.94 0.88 0.82 0.89
0.16 0.15 0.14 0.16 0.17 0.20 0.20 0.22 0.26 0.36 0.46 0.49 0.43 0.45 0.54 0.58 0.66 0.72 0.78 0.84 0.90 0.85 0.81 0.78 0.78 0.72 0.70 0.96 1.35 1.25 0.94 0.83 0.75 0.72 0.66 0.58 0.56 0.72 0.86 0.83 0.77 0.71 0.76
0.14 0.14 0.14 0.15 0.16 0.19 0.20 0.19 0.23 0.29 0.41 0.48 0.41 0.43 0.49 0.51 0.59 0.66 0.75 0.81 0.81 0.79 0.79 0.74 0.72 0.69 0.64 0.79 1.23 1.36 0.98 0.84 0.74 0.72 0.68 0.71 0.70 0.78 0.80 0.73 0.73 0.81 0.74
0.13 0.12 0.13 0.14 0.17 0.19 0.20 0.21 0.23 0.25 0.34 0.47 0.43 0.44 0.47 0.50 0.57 0.64 0.65 0.72 0.76 0.74 0.77 0.74 0.71 0.69 0.66 0.71 0.98 1.34 1.09 0.87 0.75 0.75 0.73 0.67 0.78 0.79 0.75 0.73 0.72 0.86 0.79
0.14 0.14 0.13 0.14 0.15 0.17 0.21 0.23 0.26 0.26 0.33 0.42 0.43 0.48 0.52 0.54 0.57 0.61 0.56 0.59 0.69 0.72 0.75 0.78 0.79 0.76 0.70 0.71 0.92 1.13 1.10 0.95 0.74 0.71 0.64 0.61 0.73 0.75 0.77 0.74 0.76 0.80 0.77
0.15 0.15 0.15 0.14 0.14 0.16 0.20 0.26 0.30 0.30 0.36 0.40 0.41 0.47 0.53 0.56 0.57 0.55 0.53 0.56 0.63 0.70 0.73 0.76 0.78 0.79 0.73 0.75 0.94 0.95 0.96 0.94 0.81 0.79 0.81 0.74 0.79 0.79 0.70 0.67 0.70 0.68 0.62
0.16 0.17 0.18 0.15 0.16 0.16 0.19 0.26 0.32 0.31 0.36 0.38 0.39 0.44 0.49 0.55 0.58 0.54 0.51 0.51 0.57 0.67 0.70 0.72 0.71 0.71 0.72 0.84 0.95 0.86 0.83 0.89 0.91 0.93 0.90 0.86 0.84 0.78 0.70 0.65 0.58 0.52 0.53
0.17 0.18 0.19 0.18 0.18 0.19 0.22 0.28 0.32 0.32 0.36 0.36 0.36 0.40 0.42 0.52 0.61 0.60 0.54 0.51 0.50 0.63 0.71 0.69 0.68 0.72 0.81 0.94 1.00 0.89 0.85 0.90 0.95 1.00 1.00 0.90 0.84 0.82 0.75 0.62 0.51 0.47 0.49
0.19 0.18 0.19 0.19 0.20 0.22 0.25 0.30 0.33 0.33 0.33 0.34 0.34 0.37 0.40 0.48 0.56 0.59 0.61 0.66 0.62 0.63 0.63 0.62 0.67 0.65 0.78 0.88 0.87 0.86 0.88 0.94 0.98 1.00 0.98 0.81 0.66 0.63 0.60 0.55 0.50 0.45 0.42